Year,Month,Day,Hour,Minute,Value (Times are PST for temperature in C)
2011,07,02,00,00,11.70
2011,07,02,00,01,11.60
2011,07,02,00,02,11.60
2011,07,02,00,03,11.60
2011,07,02,00,04,11.60
2011,07,02,00,05,11.60
2011,07,02,00,06,11.60
2011,07,02,00,07,11.60
2011,07,02,00,08,11.60
2011,07,02,00,09,11.50
2011,07,02,00,10,11.50
2011,07,02,00,11,11.50
2011,07,02,00,12,11.50
2011,07,02,00,13,11.40
2011,07,02,00,14,11.40
2011,07,02,00,15,11.40
2011,07,02,00,16,11.40
2011,07,02,00,17,11.40
2011,07,02,00,18,11.40
2011,07,02,00,19,11.40
2011,07,02,00,20,11.30
2011,07,02,00,21,11.30
2011,07,02,00,22,11.30
2011,07,02,00,23,11.30
2011,07,02,00,24,11.30
2011,07,02,00,25,11.30
2011,07,02,00,26,11.30
2011,07,02,00,27,11.20
2011,07,02,00,28,11.20
2011,07,02,00,29,11.20
2011,07,02,00,30,11.20
2011,07,02,00,31,11.20
2011,07,02,00,32,11.20
2011,07,02,00,33,11.20
2011,07,02,00,34,11.20
2011,07,02,00,35,11.20
2011,07,02,00,36,11.10
2011,07,02,00,37,11.10
2011,07,02,00,38,11.10
2011,07,02,00,39,11.10
2011,07,02,00,40,11.10
2011,07,02,00,41,11.10
2011,07,02,00,42,11.10
2011,07,02,00,43,11.10
2011,07,02,00,44,11.10
2011,07,02,00,45,11.10
2011,07,02,00,46,11.00
2011,07,02,00,47,11.00
2011,07,02,00,48,11.00
2011,07,02,00,49,11.00
2011,07,02,00,50,11.00
2011,07,02,00,51,11.00
2011,07,02,00,52,11.00
2011,07,02,00,53,10.90
2011,07,02,00,54,10.90
2011,07,02,00,55,10.90
2011,07,02,00,56,10.90
2011,07,02,00,57,10.90
2011,07,02,00,58,10.90
2011,07,02,00,59,10.90
2011,07,02,01,00,10.90
2011,07,02,01,01,10.90
2011,07,02,01,02,10.90
2011,07,02,01,03,10.90
2011,07,02,01,04,10.80
2011,07,02,01,05,10.80
2011,07,02,01,06,10.80
2011,07,02,01,07,10.80
2011,07,02,01,08,10.80
2011,07,02,01,09,10.80
2011,07,02,01,10,10.80
2011,07,02,01,11,10.80
2011,07,02,01,12,10.80
2011,07,02,01,13,10.80
2011,07,02,01,14,10.70
2011,07,02,01,15,10.70
2011,07,02,01,16,10.70
2011,07,02,01,17,10.70
2011,07,02,01,18,10.70
2011,07,02,01,19,10.70
2011,07,02,01,20,10.70
2011,07,02,01,21,10.70
2011,07,02,01,22,10.70
2011,07,02,01,23,10.60
2011,07,02,01,24,10.60
2011,07,02,01,25,10.60
2011,07,02,01,26,10.60
2011,07,02,01,27,10.60
2011,07,02,01,28,10.60
2011,07,02,01,29,10.60
2011,07,02,01,30,10.60
2011,07,02,01,31,10.60
2011,07,02,01,32,10.60
2011,07,02,01,33,10.60
2011,07,02,01,34,10.50
2011,07,02,01,35,10.50
2011,07,02,01,36,10.50
2011,07,02,01,37,10.50
2011,07,02,01,38,10.40
2011,07,02,01,39,10.40
2011,07,02,01,40,10.40
2011,07,02,01,41,10.40
2011,07,02,01,42,10.40
2011,07,02,01,43,10.40
2011,07,02,01,44,10.30
2011,07,02,01,45,10.30
2011,07,02,01,46,10.30
2011,07,02,01,47,10.30
2011,07,02,01,48,10.30
2011,07,02,01,49,10.30
2011,07,02,01,50,10.30
2011,07,02,01,51,10.20
2011,07,02,01,52,10.20
2011,07,02,01,53,10.20
2011,07,02,01,54,10.20
2011,07,02,01,55,10.20
2011,07,02,01,56,10.20
2011,07,02,01,57,10.20
2011,07,02,01,58,10.10
2011,07,02,01,59,10.10
2011,07,02,02,00,10.10
2011,07,02,02,01,10.10
2011,07,02,02,02,10.10
2011,07,02,02,03,10.00
2011,07,02,02,04,10.00
2011,07,02,02,05,10.00
2011,07,02,02,06,10.00
2011,07,02,02,07,9.90
2011,07,02,02,08,9.90
2011,07,02,02,09,9.90
2011,07,02,02,10,9.90
2011,07,02,02,11,9.90
2011,07,02,02,12,9.90
2011,07,02,02,13,9.80
2011,07,02,02,14,9.80
2011,07,02,02,15,9.80
2011,07,02,02,16,9.80
2011,07,02,02,17,9.80
2011,07,02,02,18,9.80
2011,07,02,02,19,9.80
2011,07,02,02,20,9.80
2011,07,02,02,21,9.70
2011,07,02,02,22,9.70
2011,07,02,02,23,9.70
2011,07,02,02,24,9.70
2011,07,02,02,25,9.70
2011,07,02,02,26,9.70
2011,07,02,02,27,9.70
2011,07,02,02,28,9.70
2011,07,02,02,29,9.70
2011,07,02,02,30,9.70
2011,07,02,02,31,9.70
2011,07,02,02,32,9.60
2011,07,02,02,33,9.60
2011,07,02,02,34,9.60
2011,07,02,02,35,9.60
2011,07,02,02,36,9.60
2011,07,02,02,37,9.60
2011,07,02,02,38,9.60
2011,07,02,02,39,9.60
2011,07,02,02,40,9.50
2011,07,02,02,41,9.50
2011,07,02,02,42,9.50
2011,07,02,02,43,9.50
2011,07,02,02,44,9.50
2011,07,02,02,45,9.40
2011,07,02,02,46,9.40
2011,07,02,02,47,9.40
2011,07,02,02,48,9.40
2011,07,02,02,49,9.40
2011,07,02,02,50,9.40
2011,07,02,02,51,9.40
2011,07,02,02,52,9.30
2011,07,02,02,53,9.30
2011,07,02,02,54,9.30
2011,07,02,02,55,9.30
2011,07,02,02,56,9.30
2011,07,02,02,57,9.30
2011,07,02,02,58,9.30
2011,07,02,02,59,9.30
2011,07,02,03,00,9.30
2011,07,02,03,01,9.20
2011,07,02,03,02,9.20
2011,07,02,03,03,9.20
2011,07,02,03,04,9.20
2011,07,02,03,05,9.20
2011,07,02,03,06,9.20
2011,07,02,03,07,9.20
2011,07,02,03,08,9.10
2011,07,02,03,09,9.10
2011,07,02,03,10,9.10
2011,07,02,03,11,9.10
2011,07,02,03,12,9.10
2011,07,02,03,13,9.10
2011,07,02,03,14,9.10
2011,07,02,03,15,9.10
2011,07,02,03,16,9.00
2011,07,02,03,17,9.00
2011,07,02,03,18,9.00
2011,07,02,03,19,9.00
2011,07,02,03,20,8.90
2011,07,02,03,21,8.90
2011,07,02,03,22,8.90
2011,07,02,03,23,8.90
2011,07,02,03,24,8.90
2011,07,02,03,25,8.90
2011,07,02,03,26,8.90
2011,07,02,03,27,8.90
2011,07,02,03,28,8.90
2011,07,02,03,29,8.90
2011,07,02,03,30,8.90
2011,07,02,03,31,8.90
2011,07,02,03,32,8.90
2011,07,02,03,33,8.90
2011,07,02,03,34,8.90
2011,07,02,03,35,8.90
2011,07,02,03,36,8.80
2011,07,02,03,37,8.80
2011,07,02,03,38,8.80
2011,07,02,03,39,8.80
2011,07,02,03,40,8.80
2011,07,02,03,41,8.80
2011,07,02,03,42,8.80
2011,07,02,03,43,8.80
2011,07,02,03,44,8.80
2011,07,02,03,45,8.80
2011,07,02,03,46,8.80
2011,07,02,03,47,8.80
2011,07,02,03,48,8.80
2011,07,02,03,49,8.80
2011,07,02,03,50,8.80
2011,07,02,03,51,8.80
2011,07,02,03,52,8.80
2011,07,02,03,53,8.80
2011,07,02,03,54,8.80
2011,07,02,03,55,8.70
2011,07,02,03,56,8.70
2011,07,02,03,57,8.70
2011,07,02,03,58,8.70
2011,07,02,03,59,8.70
2011,07,02,04,00,8.70
2011,07,02,04,01,8.70
2011,07,02,04,02,8.70
2011,07,02,04,03,8.70
2011,07,02,04,04,8.70
2011,07,02,04,05,8.70
2011,07,02,04,06,8.70
2011,07,02,04,07,8.60
2011,07,02,04,08,8.60
2011,07,02,04,09,8.60
2011,07,02,04,10,8.60
2011,07,02,04,11,8.60
2011,07,02,04,12,8.60
2011,07,02,04,13,8.60
2011,07,02,04,14,8.60
2011,07,02,04,15,8.60
2011,07,02,04,16,8.60
2011,07,02,04,17,8.60
2011,07,02,04,18,8.60
2011,07,02,04,19,8.50
2011,07,02,04,20,8.50
2011,07,02,04,21,8.50
2011,07,02,04,22,8.50
2011,07,02,04,23,8.50
2011,07,02,04,24,8.40
2011,07,02,04,25,8.40
2011,07,02,04,26,8.40
2011,07,02,04,27,8.40
2011,07,02,04,28,8.40
2011,07,02,04,29,8.40
2011,07,02,04,30,8.40
2011,07,02,04,31,8.40
2011,07,02,04,32,8.40
2011,07,02,04,33,8.40
2011,07,02,04,34,8.40
2011,07,02,04,35,8.40
2011,07,02,04,36,8.40
2011,07,02,04,37,8.40
2011,07,02,04,38,8.40
2011,07,02,04,39,8.40
2011,07,02,04,40,8.40
2011,07,02,04,41,8.40
2011,07,02,04,42,8.30
2011,07,02,04,43,8.30
2011,07,02,04,44,8.30
2011,07,02,04,45,8.30
2011,07,02,04,46,8.30
2011,07,02,04,47,8.30
2011,07,02,04,48,8.30
2011,07,02,04,49,8.30
2011,07,02,04,50,8.30
2011,07,02,04,51,8.30
2011,07,02,04,52,8.30
2011,07,02,04,53,8.30
2011,07,02,04,54,8.30
2011,07,02,04,55,8.30
2011,07,02,04,56,8.30
2011,07,02,04,57,8.30
2011,07,02,04,58,8.30
2011,07,02,04,59,8.30
2011,07,02,05,00,8.30
2011,07,02,05,01,8.30
2011,07,02,05,02,8.30
2011,07,02,05,03,8.30
2011,07,02,05,04,8.30
2011,07,02,05,05,8.20
2011,07,02,05,06,8.20
2011,07,02,05,07,8.20
2011,07,02,05,08,8.20
2011,07,02,05,09,8.20
2011,07,02,05,10,8.20
2011,07,02,05,11,8.20
2011,07,02,05,12,8.20
2011,07,02,05,13,8.20
2011,07,02,05,14,8.20
2011,07,02,05,15,8.20
2011,07,02,05,16,8.20
2011,07,02,05,17,8.20
2011,07,02,05,18,8.20
2011,07,02,05,19,8.20
2011,07,02,05,20,8.20
2011,07,02,05,21,8.20
2011,07,02,05,22,8.20
2011,07,02,05,23,8.20
2011,07,02,05,24,8.20
2011,07,02,05,25,8.20
2011,07,02,05,26,8.20
2011,07,02,05,27,8.20
2011,07,02,05,28,8.20
2011,07,02,05,29,8.20
2011,07,02,05,30,8.20
2011,07,02,05,31,8.20
2011,07,02,05,32,8.20
2011,07,02,05,33,8.20
2011,07,02,05,34,8.20
2011,07,02,05,35,8.20
2011,07,02,05,36,8.20
2011,07,02,05,37,8.20
2011,07,02,05,38,8.20
2011,07,02,05,39,8.20
2011,07,02,05,40,8.20
2011,07,02,05,41,8.20
2011,07,02,05,42,8.20
2011,07,02,05,43,8.20
2011,07,02,05,44,8.20
2011,07,02,05,45,8.30
2011,07,02,05,46,8.20
2011,07,02,05,47,8.20
2011,07,02,05,48,8.20
2011,07,02,05,49,8.20
2011,07,02,05,50,8.20
2011,07,02,05,51,8.20
2011,07,02,05,52,8.20
2011,07,02,05,53,8.20
2011,07,02,05,54,8.20
2011,07,02,05,55,8.20
2011,07,02,05,56,8.20
2011,07,02,05,57,8.20
2011,07,02,05,58,8.20
2011,07,02,05,59,8.20
2011,07,02,06,00,8.10
2011,07,02,06,01,8.10
2011,07,02,06,02,8.10
2011,07,02,06,03,8.10
2011,07,02,06,04,8.10
2011,07,02,06,05,8.10
2011,07,02,06,06,8.10
2011,07,02,06,07,8.10
2011,07,02,06,08,8.10
2011,07,02,06,09,8.10
2011,07,02,06,10,8.10
2011,07,02,06,11,8.10
2011,07,02,06,12,8.10
2011,07,02,06,13,8.10
2011,07,02,06,14,8.10
2011,07,02,06,15,8.10
2011,07,02,06,16,8.10
2011,07,02,06,17,8.10
2011,07,02,06,18,8.10
2011,07,02,06,19,8.10
2011,07,02,06,20,8.10
2011,07,02,06,21,8.10
2011,07,02,06,22,8.10
2011,07,02,06,23,8.10
2011,07,02,06,24,8.10
2011,07,02,06,25,8.10
2011,07,02,06,26,8.10
2011,07,02,06,27,8.20
2011,07,02,06,28,8.20
2011,07,02,06,29,8.20
2011,07,02,06,30,8.20
2011,07,02,06,31,8.20
2011,07,02,06,32,8.20
2011,07,02,06,33,8.20
2011,07,02,06,34,8.20
2011,07,02,06,35,8.20
2011,07,02,06,36,8.20
2011,07,02,06,37,8.20
2011,07,02,06,38,8.20
2011,07,02,06,39,8.20
2011,07,02,06,40,8.20
2011,07,02,06,41,8.20
2011,07,02,06,42,8.20
2011,07,02,06,43,8.20
2011,07,02,06,44,8.20
2011,07,02,06,45,8.20
2011,07,02,06,46,8.20
2011,07,02,06,47,8.20
2011,07,02,06,48,8.20
2011,07,02,06,49,8.30
2011,07,02,06,50,8.30
2011,07,02,06,51,8.30
2011,07,02,06,52,8.30
2011,07,02,06,53,8.30
2011,07,02,06,54,8.30
2011,07,02,06,55,8.30
2011,07,02,06,56,8.30
2011,07,02,06,57,8.30
2011,07,02,06,58,8.30
2011,07,02,06,59,8.30
2011,07,02,07,00,8.40
2011,07,02,07,01,8.40
2011,07,02,07,02,8.40
2011,07,02,07,03,8.40
2011,07,02,07,04,8.40
2011,07,02,07,05,8.40
2011,07,02,07,06,8.40
2011,07,02,07,07,8.40
2011,07,02,07,08,8.50
2011,07,02,07,09,8.50
2011,07,02,07,10,8.50
2011,07,02,07,11,8.50
2011,07,02,07,12,8.50
2011,07,02,07,13,8.50
2011,07,02,07,14,8.50
2011,07,02,07,15,8.60
2011,07,02,07,16,8.60
2011,07,02,07,17,8.60
2011,07,02,07,18,8.60
2011,07,02,07,19,8.60
2011,07,02,07,20,8.60
2011,07,02,07,21,8.60
2011,07,02,07,22,8.60
2011,07,02,07,23,8.70
2011,07,02,07,24,8.70
2011,07,02,07,25,8.70
2011,07,02,07,26,8.70
2011,07,02,07,27,8.70
2011,07,02,07,28,8.70
2011,07,02,07,29,8.80
2011,07,02,07,30,8.80
2011,07,02,07,31,8.80
2011,07,02,07,32,8.80
2011,07,02,07,33,8.80
2011,07,02,07,34,8.90
2011,07,02,07,35,8.90
2011,07,02,07,36,8.90
2011,07,02,07,37,8.90
2011,07,02,07,38,9.00
2011,07,02,07,39,9.00
2011,07,02,07,40,9.00
2011,07,02,07,41,9.10
2011,07,02,07,42,9.10
2011,07,02,07,43,9.10
2011,07,02,07,44,9.10
2011,07,02,07,45,9.20
2011,07,02,07,46,9.20
2011,07,02,07,47,9.20
2011,07,02,07,48,9.20
2011,07,02,07,49,9.30
2011,07,02,07,50,9.30
2011,07,02,07,51,9.30
2011,07,02,07,52,9.40
2011,07,02,07,53,9.40
2011,07,02,07,54,9.40
2011,07,02,07,55,9.40
2011,07,02,07,56,9.50
2011,07,02,07,57,9.50
2011,07,02,07,58,9.60
2011,07,02,07,59,9.60
2011,07,02,08,00,9.60
2011,07,02,08,01,9.60
2011,07,02,08,02,9.70
2011,07,02,08,03,9.70
2011,07,02,08,04,9.80
2011,07,02,08,05,9.80
2011,07,02,08,06,9.80
2011,07,02,08,07,9.90
2011,07,02,08,08,9.90
2011,07,02,08,09,10.00
2011,07,02,08,10,10.00
2011,07,02,08,11,10.10
2011,07,02,08,12,10.10
2011,07,02,08,13,10.20
2011,07,02,08,14,10.20
2011,07,02,08,15,10.20
2011,07,02,08,16,10.30
2011,07,02,08,17,10.30
2011,07,02,08,18,10.30
2011,07,02,08,19,10.40
2011,07,02,08,20,10.40
2011,07,02,08,21,10.50
2011,07,02,08,22,10.60
2011,07,02,08,23,10.60
2011,07,02,08,24,10.70
2011,07,02,08,25,10.70
2011,07,02,08,26,10.70
2011,07,02,08,27,10.80
2011,07,02,08,28,10.80
2011,07,02,08,29,10.90
2011,07,02,08,30,10.90
2011,07,02,08,31,11.00
2011,07,02,08,32,11.10
2011,07,02,08,33,11.10
2011,07,02,08,34,11.20
2011,07,02,08,35,11.20
2011,07,02,08,36,11.20
2011,07,02,08,37,11.30
2011,07,02,08,38,11.30
2011,07,02,08,39,11.40
2011,07,02,08,40,11.40
2011,07,02,08,41,11.50
2011,07,02,08,42,11.50
2011,07,02,08,43,11.60
2011,07,02,08,44,11.60
2011,07,02,08,45,11.70
2011,07,02,08,46,11.70
2011,07,02,08,47,11.80
2011,07,02,08,48,11.80
2011,07,02,08,49,11.90
2011,07,02,08,50,12.00
2011,07,02,08,51,12.00
2011,07,02,08,52,12.10
2011,07,02,08,53,12.10
2011,07,02,08,54,12.20
2011,07,02,08,55,12.20
2011,07,02,08,56,12.20
2011,07,02,08,57,12.30
2011,07,02,08,58,12.30
2011,07,02,08,59,12.30
2011,07,02,09,00,12.30
2011,07,02,09,01,12.40
2011,07,02,09,02,12.40
2011,07,02,09,03,12.50
2011,07,02,09,04,12.50
2011,07,02,09,05,12.50
2011,07,02,09,06,12.60
2011,07,02,09,07,12.60
2011,07,02,09,08,12.60
2011,07,02,09,09,12.60
2011,07,02,09,10,12.60
2011,07,02,09,11,12.70
2011,07,02,09,12,12.70
2011,07,02,09,13,12.70
2011,07,02,09,14,12.80
2011,07,02,09,15,12.80
2011,07,02,09,16,12.80
2011,07,02,09,17,12.80
2011,07,02,09,18,12.90
2011,07,02,09,19,13.00
2011,07,02,09,20,13.00
2011,07,02,09,21,13.10
2011,07,02,09,22,13.10
2011,07,02,09,23,13.20
2011,07,02,09,24,13.20
2011,07,02,09,25,13.30
2011,07,02,09,26,13.30
2011,07,02,09,27,13.30
2011,07,02,09,28,13.40
2011,07,02,09,29,13.40
2011,07,02,09,30,13.50
2011,07,02,09,31,13.50
2011,07,02,09,32,13.60
2011,07,02,09,33,13.60
2011,07,02,09,34,13.70
2011,07,02,09,35,13.70
2011,07,02,09,36,13.80
2011,07,02,09,37,13.80
2011,07,02,09,38,13.90
2011,07,02,09,39,13.90
2011,07,02,09,40,13.90
2011,07,02,09,41,14.00
2011,07,02,09,42,14.10
2011,07,02,09,43,14.10
2011,07,02,09,44,14.10
2011,07,02,09,45,14.20
2011,07,02,09,46,14.30
2011,07,02,09,47,14.30
2011,07,02,09,48,14.40
2011,07,02,09,49,14.40
2011,07,02,09,50,14.50
2011,07,02,09,51,14.60
2011,07,02,09,52,14.60
2011,07,02,09,53,14.70
2011,07,02,09,54,14.80
2011,07,02,09,55,14.80
2011,07,02,09,56,14.90
2011,07,02,09,57,15.00
2011,07,02,09,58,15.00
2011,07,02,09,59,15.00
2011,07,02,10,00,15.00
2011,07,02,10,01,15.00
2011,07,02,10,02,15.10
2011,07,02,10,03,15.20
2011,07,02,10,04,15.20
2011,07,02,10,05,15.30
2011,07,02,10,06,15.30
2011,07,02,10,07,15.40
2011,07,02,10,08,15.40
2011,07,02,10,09,15.50
2011,07,02,10,10,15.60
2011,07,02,10,11,15.60
2011,07,02,10,12,15.70
2011,07,02,10,13,15.70
2011,07,02,10,14,15.70
2011,07,02,10,15,15.80
2011,07,02,10,16,15.80
2011,07,02,10,17,15.90
2011,07,02,10,18,15.90
2011,07,02,10,19,15.90
2011,07,02,10,20,16.00
2011,07,02,10,21,16.10
2011,07,02,10,22,16.10
2011,07,02,10,23,16.10
2011,07,02,10,24,16.10
2011,07,02,10,25,16.20
2011,07,02,10,26,16.20
2011,07,02,10,27,16.20
2011,07,02,10,28,16.30
2011,07,02,10,29,16.30
2011,07,02,10,30,16.30
2011,07,02,10,31,16.40
2011,07,02,10,32,16.40
2011,07,02,10,33,16.50
2011,07,02,10,34,16.60
2011,07,02,10,35,16.70
2011,07,02,10,36,16.70
2011,07,02,10,37,16.80
2011,07,02,10,38,16.90
2011,07,02,10,39,17.10
2011,07,02,10,40,17.10
2011,07,02,10,41,17.30
2011,07,02,10,42,17.40
2011,07,02,10,43,17.50
2011,07,02,10,44,17.50
2011,07,02,10,45,17.60
2011,07,02,10,46,17.70
2011,07,02,10,47,17.80
2011,07,02,10,48,17.80
2011,07,02,10,49,17.90
2011,07,02,10,50,18.00
2011,07,02,10,51,18.20
2011,07,02,10,52,18.30
2011,07,02,10,53,18.40
2011,07,02,10,54,18.50
2011,07,02,10,55,18.60
2011,07,02,10,56,18.80
2011,07,02,10,57,18.80
2011,07,02,10,58,19.00
2011,07,02,10,59,19.10
2011,07,02,11,00,19.20
2011,07,02,11,01,19.30
2011,07,02,11,02,19.40
2011,07,02,11,03,19.50
2011,07,02,11,04,19.60
2011,07,02,11,05,19.70
2011,07,02,11,06,19.80
2011,07,02,11,07,19.90
2011,07,02,11,08,20.00
2011,07,02,11,09,20.10
2011,07,02,11,10,20.20
2011,07,02,11,11,20.30
2011,07,02,11,12,20.40
2011,07,02,11,13,20.40
2011,07,02,11,14,20.50
2011,07,02,11,15,20.60
2011,07,02,11,16,20.60
2011,07,02,11,17,20.80
2011,07,02,11,18,20.90
2011,07,02,11,19,21.10
2011,07,02,11,20,21.10
2011,07,02,11,21,21.20
2011,07,02,11,22,21.30
2011,07,02,11,23,21.30
2011,07,02,11,24,21.40
2011,07,02,11,25,21.40
2011,07,02,11,26,21.50
2011,07,02,11,27,21.60
2011,07,02,11,28,21.60
2011,07,02,11,29,21.70
2011,07,02,11,30,21.80
2011,07,02,11,31,21.80
2011,07,02,11,32,21.90
2011,07,02,11,33,22.00
2011,07,02,11,34,22.20
2011,07,02,11,35,22.30
2011,07,02,11,36,22.30
2011,07,02,11,37,22.30
2011,07,02,11,38,22.40
2011,07,02,11,39,22.40
2011,07,02,11,40,22.50
2011,07,02,11,41,22.60
2011,07,02,11,42,22.70
2011,07,02,11,43,22.80
2011,07,02,11,44,22.80
2011,07,02,11,45,22.90
2011,07,02,11,46,23.00
2011,07,02,11,47,23.10
2011,07,02,11,48,23.10
2011,07,02,11,49,23.20
2011,07,02,11,50,23.20
2011,07,02,11,51,23.20
2011,07,02,11,52,23.20
2011,07,02,11,53,23.30
2011,07,02,11,54,23.30
2011,07,02,11,55,23.40
2011,07,02,11,56,23.40
2011,07,02,11,57,23.30
2011,07,02,11,58,23.30
2011,07,02,11,59,23.20
2011,07,02,12,00,23.20
2011,07,02,12,01,23.20
2011,07,02,12,02,23.20
2011,07,02,12,03,23.20
2011,07,02,12,04,23.20
2011,07,02,12,05,23.20
2011,07,02,12,06,23.20
2011,07,02,12,07,23.20
2011,07,02,12,08,23.20
2011,07,02,12,09,23.30
2011,07,02,12,10,23.30
2011,07,02,12,11,23.30
2011,07,02,12,12,23.30
2011,07,02,12,13,23.30
2011,07,02,12,14,23.40
2011,07,02,12,15,23.40
2011,07,02,12,16,23.50
2011,07,02,12,17,23.60
2011,07,02,12,18,23.70
2011,07,02,12,19,23.90
2011,07,02,12,20,24.00
2011,07,02,12,21,24.10
2011,07,02,12,22,24.20
2011,07,02,12,23,24.20
2011,07,02,12,24,24.20
2011,07,02,12,25,24.10
2011,07,02,12,26,24.10
2011,07,02,12,27,24.10
2011,07,02,12,28,24.10
2011,07,02,12,29,24.10
2011,07,02,12,30,24.00
2011,07,02,12,31,24.10
2011,07,02,12,32,24.10
2011,07,02,12,33,24.10
2011,07,02,12,34,24.10
2011,07,02,12,35,24.10
2011,07,02,12,36,24.20
2011,07,02,12,37,24.20
2011,07,02,12,38,24.20
2011,07,02,12,39,24.30
2011,07,02,12,40,24.30
2011,07,02,12,41,24.40
2011,07,02,12,42,24.50
2011,07,02,12,43,24.50
2011,07,02,12,44,24.60
2011,07,02,12,45,24.60
2011,07,02,12,46,24.60
2011,07,02,12,47,24.60
2011,07,02,12,48,24.60
2011,07,02,12,49,24.70
2011,07,02,12,50,24.70
2011,07,02,12,51,24.80
2011,07,02,12,52,24.80
2011,07,02,12,53,24.90
2011,07,02,12,54,25.00
2011,07,02,12,55,25.10
2011,07,02,12,56,25.20
2011,07,02,12,57,25.20
2011,07,02,12,58,25.30
2011,07,02,12,59,25.30
2011,07,02,13,00,25.40
2011,07,02,13,01,25.40
2011,07,02,13,02,25.30
2011,07,02,13,03,25.30
2011,07,02,13,04,25.20
2011,07,02,13,05,25.20
2011,07,02,13,06,25.10
2011,07,02,13,07,25.00
2011,07,02,13,08,25.00
2011,07,02,13,09,25.00
2011,07,02,13,10,25.10
2011,07,02,13,11,25.10
2011,07,02,13,12,25.20
2011,07,02,13,13,25.20
2011,07,02,13,14,25.30
2011,07,02,13,15,25.40
2011,07,02,13,16,25.40
2011,07,02,13,17,25.50
2011,07,02,13,18,25.60
2011,07,02,13,19,25.50
2011,07,02,13,20,25.50
2011,07,02,13,21,25.50
2011,07,02,13,22,25.40
2011,07,02,13,23,25.40
2011,07,02,13,24,25.40
2011,07,02,13,25,25.30
2011,07,02,13,26,25.20
2011,07,02,13,27,25.20
2011,07,02,13,28,25.10
2011,07,02,13,29,25.10
2011,07,02,13,30,25.00
2011,07,02,13,31,25.00
2011,07,02,13,32,25.00
2011,07,02,13,33,25.00
2011,07,02,13,34,25.10
2011,07,02,13,35,25.20
2011,07,02,13,36,25.30
2011,07,02,13,37,25.50
2011,07,02,13,38,25.60
2011,07,02,13,39,25.80
2011,07,02,13,40,25.90
2011,07,02,13,41,26.00
2011,07,02,13,42,26.10
2011,07,02,13,43,26.10
2011,07,02,13,44,26.10
2011,07,02,13,45,26.10
2011,07,02,13,46,26.10
2011,07,02,13,47,26.20
2011,07,02,13,48,26.20
2011,07,02,13,49,26.10
2011,07,02,13,50,26.00
2011,07,02,13,51,25.90
2011,07,02,13,52,25.90
2011,07,02,13,53,25.90
2011,07,02,13,54,25.90
2011,07,02,13,55,25.90
2011,07,02,13,56,25.90
2011,07,02,13,57,25.90
2011,07,02,13,58,25.80
2011,07,02,13,59,25.90
2011,07,02,14,00,25.90
2011,07,02,14,01,26.00
2011,07,02,14,02,26.20
2011,07,02,14,03,26.20
2011,07,02,14,04,26.20
2011,07,02,14,05,26.30
2011,07,02,14,06,26.40
2011,07,02,14,07,26.60
2011,07,02,14,08,26.70
2011,07,02,14,09,26.80
2011,07,02,14,10,26.80
2011,07,02,14,11,26.80
2011,07,02,14,12,26.90
2011,07,02,14,13,26.90
2011,07,02,14,14,27.00
2011,07,02,14,15,27.00
2011,07,02,14,16,27.10
2011,07,02,14,17,27.10
2011,07,02,14,18,27.20
2011,07,02,14,19,27.20
2011,07,02,14,20,27.20
2011,07,02,14,21,27.20
2011,07,02,14,22,27.20
2011,07,02,14,23,27.20
2011,07,02,14,24,27.20
2011,07,02,14,25,27.20
2011,07,02,14,26,27.20
2011,07,02,14,27,27.20
2011,07,02,14,28,27.20
2011,07,02,14,29,27.20
2011,07,02,14,30,27.30
2011,07,02,14,31,27.20
2011,07,02,14,32,27.20
2011,07,02,14,33,27.20
2011,07,02,14,34,27.30
2011,07,02,14,35,27.30
2011,07,02,14,36,27.30
2011,07,02,14,37,27.40
2011,07,02,14,38,27.40
2011,07,02,14,39,27.40
2011,07,02,14,40,27.40
2011,07,02,14,41,27.40
2011,07,02,14,42,27.50
2011,07,02,14,43,27.60
2011,07,02,14,44,27.60
2011,07,02,14,45,27.60
2011,07,02,14,46,27.60
2011,07,02,14,47,27.70
2011,07,02,14,48,27.70
2011,07,02,14,49,27.70
2011,07,02,14,50,27.70
2011,07,02,14,51,27.70
2011,07,02,14,52,27.70
2011,07,02,14,53,27.80
2011,07,02,14,54,27.80
2011,07,02,14,55,27.80
2011,07,02,14,56,27.70
2011,07,02,14,57,27.70
2011,07,02,14,58,27.70
2011,07,02,14,59,27.60
2011,07,02,15,00,27.70
2011,07,02,15,01,27.70
2011,07,02,15,02,27.80
2011,07,02,15,03,27.90
2011,07,02,15,04,27.90
2011,07,02,15,05,28.00
2011,07,02,15,06,28.00
2011,07,02,15,07,28.10
2011,07,02,15,08,28.10
2011,07,02,15,09,28.10
2011,07,02,15,10,28.20
2011,07,02,15,11,28.20
2011,07,02,15,12,28.20
2011,07,02,15,13,28.10
2011,07,02,15,14,28.10
2011,07,02,15,15,28.10
2011,07,02,15,16,28.20
2011,07,02,15,17,28.10
2011,07,02,15,18,28.10
2011,07,02,15,19,28.10
2011,07,02,15,20,28.20
2011,07,02,15,21,28.10
2011,07,02,15,22,28.00
2011,07,02,15,23,27.80
2011,07,02,15,24,27.60
2011,07,02,15,25,27.50
2011,07,02,15,26,27.30
2011,07,02,15,27,27.10
2011,07,02,15,28,27.00
2011,07,02,15,29,26.80
2011,07,02,15,30,26.70
2011,07,02,15,31,26.60
2011,07,02,15,32,26.50
2011,07,02,15,33,26.40
2011,07,02,15,34,26.30
2011,07,02,15,35,26.30
2011,07,02,15,36,26.30
2011,07,02,15,37,26.30
2011,07,02,15,38,26.30
2011,07,02,15,39,26.30
2011,07,02,15,40,26.30
2011,07,02,15,41,26.30
2011,07,02,15,42,26.20
2011,07,02,15,43,26.10
2011,07,02,15,44,26.00
2011,07,02,15,45,25.90
2011,07,02,15,46,25.90
2011,07,02,15,47,25.80
2011,07,02,15,48,25.70
2011,07,02,15,49,25.70
2011,07,02,15,50,25.60
2011,07,02,15,51,25.60
2011,07,02,15,52,25.60
2011,07,02,15,53,25.50
2011,07,02,15,54,25.60
2011,07,02,15,55,25.60
2011,07,02,15,56,25.60
2011,07,02,15,57,25.70
2011,07,02,15,58,25.80
2011,07,02,15,59,25.80
2011,07,02,16,00,25.90
2011,07,02,16,01,25.90
2011,07,02,16,02,25.90
2011,07,02,16,03,25.90
2011,07,02,16,04,25.90
2011,07,02,16,05,25.90
2011,07,02,16,06,25.90
2011,07,02,16,07,25.90
2011,07,02,16,08,25.90
2011,07,02,16,09,26.00
2011,07,02,16,10,26.10
2011,07,02,16,11,26.20
2011,07,02,16,12,26.30
2011,07,02,16,13,26.30
2011,07,02,16,14,26.40
2011,07,02,16,15,26.40
2011,07,02,16,16,26.50
2011,07,02,16,17,26.50
2011,07,02,16,18,26.50
2011,07,02,16,19,26.40
2011,07,02,16,20,26.30
2011,07,02,16,21,26.30
2011,07,02,16,22,26.20
2011,07,02,16,23,26.20
2011,07,02,16,24,26.30
2011,07,02,16,25,26.30
2011,07,02,16,26,26.30
2011,07,02,16,27,26.30
2011,07,02,16,28,26.20
2011,07,02,16,29,26.20
2011,07,02,16,30,26.10
2011,07,02,16,31,26.00
2011,07,02,16,32,25.90
2011,07,02,16,33,25.90
2011,07,02,16,34,25.90
2011,07,02,16,35,26.00
2011,07,02,16,36,26.10
2011,07,02,16,37,26.10
2011,07,02,16,38,26.10
2011,07,02,16,39,26.00
2011,07,02,16,40,26.00
2011,07,02,16,41,26.00
2011,07,02,16,42,25.90
2011,07,02,16,43,25.90
2011,07,02,16,44,25.90
2011,07,02,16,45,25.90
2011,07,02,16,46,25.80
2011,07,02,16,47,25.70
2011,07,02,16,48,25.70
2011,07,02,16,49,25.70
2011,07,02,16,50,25.70
2011,07,02,16,51,25.70
2011,07,02,16,52,25.70
2011,07,02,16,53,25.70
2011,07,02,16,54,25.70
2011,07,02,16,55,25.80
2011,07,02,16,56,25.90
2011,07,02,16,57,25.90
2011,07,02,16,58,25.90
2011,07,02,16,59,26.00
2011,07,02,17,00,26.00
2011,07,02,17,01,26.00
2011,07,02,17,02,25.90
2011,07,02,17,03,25.90
2011,07,02,17,04,25.90
2011,07,02,17,05,25.90
2011,07,02,17,06,25.90
2011,07,02,17,07,25.90
2011,07,02,17,08,25.90
2011,07,02,17,09,25.90
2011,07,02,17,10,25.90
2011,07,02,17,11,25.90
2011,07,02,17,12,25.90
2011,07,02,17,13,25.90
2011,07,02,17,14,25.90
2011,07,02,17,15,26.00
2011,07,02,17,16,26.10
2011,07,02,17,17,26.10
2011,07,02,17,18,26.20
2011,07,02,17,19,26.20
2011,07,02,17,20,26.20
2011,07,02,17,21,26.20
2011,07,02,17,22,26.10
2011,07,02,17,23,26.00
2011,07,02,17,24,25.90
2011,07,02,17,25,25.90
2011,07,02,17,26,25.90
2011,07,02,17,27,25.90
2011,07,02,17,28,25.90
2011,07,02,17,29,25.90
2011,07,02,17,30,25.90
2011,07,02,17,31,25.90
2011,07,02,17,32,25.90
2011,07,02,17,33,25.90
2011,07,02,17,34,25.90
2011,07,02,17,35,25.70